Regional Weather Roundup
Issued by NWS

Home | Current Version | Previous Version | Graphics & Text | Print | Product List | Glossary On
Versions: 1 2 3 4 5 6 7 8 9 10 11 12 13 14 15 16 17 18 19 20 21 22 23 24 25 26 27 28 29 30 31 32 33 34 35 36 37 38 39 40 41 42 43 44 45 46 47 48 49 50
232
ASUS43 KOAX 181710
RWRNE

WEATHER ROUNDUP FOR NEBRASKA
NATIONAL WEATHER SERVICE OMAHA NE
1100 AM CST SAT NOV 18 2017

NOTES: SATELLITE DATA IS BEING USED TO AUGMENT CLOUD COVER ABOVE
       12000 FEET.
       "FAIR" INDICATES FEW OR NO CLOUDS BELOW 12,000 FEET WITH NO
       SIGNIFICANT WEATHER AND/OR OBSTRUCTIONS TO VISIBILITY.


NEZ001>004-019>022-054>056-181800-
NEBRASKA PANHANDLE

CITY           SKY/WX    TMP DP  RH WIND       PRES   REMARKS
SCOTTSBLUFF    SUNNY     38  19  46 W15       30.24R WCI  29
ALLIANCE       SUNNY     38  20  48 NW16      30.19R WCI  29
CHADRON        SUNNY     39  21  48 NW16G24   30.22R WCI  30
GORDON         FAIR      38  25  59 NW16G22   30.16R WCI  29
KIMBALL        SUNNY     35  18  48 NW26G32   30.23R WCI  23
SIDNEY         SUNNY     38  20  48 NW17G26   30.23S WCI  28
$$

NEZ057>060-069>072-079>082-181800-
SOUTHWEST NEBRASKA

CITY           SKY/WX    TMP DP  RH WIND       PRES   REMARKS
NORTH PLATTE   SUNNY     45  27  49 NW23G31   30.17R
IMPERIAL       SUNNY     43  22  43 NW20      30.22R
LEXINGTON      SUNNY     45  31  58 NW23G33   30.14R
MCCOOK         SUNNY     45  30  55 NW21G32   30.19R
OGALLALA       SUNNY     42  26  53 NW17G24   30.22R
$$

NEZ005>010-023>029-035>040-094-181800-
NORTH CENTRAL NEBRASKA

CITY           SKY/WX    TMP DP  RH WIND       PRES   REMARKS
VALENTINE      SUNNY     42  26  53 NW21G28   30.13R
AINSWORTH      SUNNY     39  29  67 NW22G30   30.11R WCI  29
BROKEN BOW     SUNNY     43  30  60 NW20G35   30.11R
O`NEILL        SUNNY     40  31  69 NW24G36   30.08R WCI  30
ORD            SUNNY     44  31  60 NW24G37   30.08R
THEDFORD       SUNNY     42  27  56 NW24G33   30.14R
$$

NEZ041-046>049-061>064-073>077-083>087-181800-
SOUTH CENTRAL NEBRASKA

CITY           SKY/WX    TMP DP  RH WIND       PRES   REMARKS
GRAND ISLAND   SUNNY     45  32  60 NW23G36   30.08R
AURORA         SUNNY     45  34  64 N29G38    30.06R
HASTINGS       SUNNY     45  32  60 N25G41    30.08R
HEBRON         CLOUDY    48  39  70 N20G26    30.04R
HOLDREGE       SUNNY     44  33  65 NW22G31   30.13R
KEARNEY        SUNNY     45  31  58 NW23G31   30.11R
YORK           SUNNY     46  39  76 NW29      30.02R
$$

NEZ011>018-030>034-042>045-181800-
NORTHEAST NEBRASKA

CITY           SKY/WX    TMP DP  RH WIND       PRES   REMARKS
NORFOLK        SUNNY     45  32  60 NW22G38   29.98R
ALBION         MOSUNNY   44  32  63 N24G31    30.05R
BLAIR          MOSUNNY   42  33  69 NW23G30   29.95R
COLUMBUS       MOSUNNY   46  34  62 NW18G33   30.02R
FREMONT        MOSUNNY   43  36  75 NW22G29   29.99R
TEKAMAH        MOSUNNY   40  30  67 N18G38    29.97R WCI  31
WAYNE          SUNNY     43  31  64 NW22G35   29.98R
$$

NEZ050>053-065>068-078-088>093-181800-
SOUTHEAST NEBRASKA

CITY           SKY/WX    TMP DP  RH WIND       PRES   REMARKS
LINCOLN        MOSUNNY   48  37  65 NW21G28   30.00R
OMAHA EPPLEY   PTSUNNY   43  29  57 N17       29.95R
BEATRICE       CLOUDY    46  38  74 NW30      30.00R
FALLS CITY     CLOUDY    43  31  62 NW16G28   29.92R
NEBRASKA CITY  PTSUNNY   43  33  67 N22G30    29.95R
PLATTSMOUTH    MOSUNNY   41  30  65 NW24G31   29.94R
$$

NEZ044-045-051>053-067-181800-
OMAHA AREA

CITY           SKY/WX    TMP DP  RH WIND       PRES   REMARKS
OMAHA EPPLEY   PTSUNNY   43  29  57 N17       29.95R
BLAIR          MOSUNNY   42  33  69 NW23G30   29.95R
FREMONT        MOSUNNY   43  36  75 NW22G29   29.99R
MILLARD        MOSUNNY   45  33  63 NW21G32   29.97R
OFFUTT AFB     PTSUNNY   44  27  51 N21G29    29.95R
PLATTSMOUTH    MOSUNNY   41  30  65 NW24G31   29.94R
WAHOO          FAIR      44  36  73 NW20G33   29.98R
$$




USA.gov is the U.S. government's official web portal to all federal, state and local government web resources and services.